Date_Time,Julian_Date,Latitude,Longitude,Instrument_Depth,Water_Temperature
(yyyy-mm-dd hh:mn:ss UTC),(JD),(+ deg. North),(+ deg. East),(m),(deg. C)
1981-10-20 22:00:00 UTC,2444898.416667,28.7317,-95.2428,0109,26.3000
1981-10-20 22:30:00 UTC,2444898.437500,28.7317,-95.2428,0109,26.2000
1981-10-20 23:00:00 UTC,2444898.458333,28.7317,-95.2428,0109,26.2000
1981-10-20 23:30:00 UTC,2444898.479167,28.7317,-95.2428,0109,26.2000
1981-10-21 00:00:00 UTC,2444898.500000,28.7317,-95.2428,0109,26.2000
1981-10-21 00:30:00 UTC,2444898.520833,28.7317,-95.2428,0109,26.2000
1981-10-21 01:00:00 UTC,2444898.541667,28.7317,-95.2428,0109,26.2000
1981-10-21 01:30:00 UTC,2444898.562500,28.7317,-95.2428,0109,26.2000
1981-10-21 02:00:00 UTC,2444898.583333,28.7317,-95.2428,0109,26.3000
1981-10-21 02:30:00 UTC,2444898.604167,28.7317,-95.2428,0109,26.3000
1981-10-21 03:00:00 UTC,2444898.625000,28.7317,-95.2428,0109,26.3000
1981-10-21 03:30:00 UTC,2444898.645833,28.7317,-95.2428,0109,26.3000
1981-10-21 04:00:00 UTC,2444898.666667,28.7317,-95.2428,0109,26.3000
1981-10-21 04:30:00 UTC,2444898.687500,28.7317,-95.2428,0109,26.3000
1981-10-21 05:00:00 UTC,2444898.708333,28.7317,-95.2428,0109,26.3000
1981-10-21 05:30:00 UTC,2444898.729167,28.7317,-95.2428,0109,26.3000
1981-10-21 06:00:00 UTC,2444898.750000,28.7317,-95.2428,0109,26.3000
1981-10-21 06:30:00 UTC,2444898.770833,28.7317,-95.2428,0109,26.3000
1981-10-21 07:00:00 UTC,2444898.791667,28.7317,-95.2428,0109,26.2000
1981-10-21 07:30:00 UTC,2444898.812500,28.7317,-95.2428,0109,26.2000
1981-10-21 08:00:00 UTC,2444898.833333,28.7317,-95.2428,0109,26.1000
1981-10-21 08:30:00 UTC,2444898.854167,28.7317,-95.2428,0109,26.0000
1981-10-21 09:00:00 UTC,2444898.875000,28.7317,-95.2428,0109,26.0000
1981-10-21 09:30:00 UTC,2444898.895833,28.7317,-95.2428,0109,25.9000
1981-10-21 10:00:00 UTC,2444898.916667,28.7317,-95.2428,0109,26.0000
1981-10-21 10:30:00 UTC,2444898.937500,28.7317,-95.2428,0109,26.0000
1981-10-21 11:00:00 UTC,2444898.958333,28.7317,-95.2428,0109,26.0000
1981-10-21 11:30:00 UTC,2444898.979167,28.7317,-95.2428,0109,26.1000
1981-10-21 12:00:00 UTC,2444899.000000,28.7317,-95.2428,0109,26.2000
1981-10-21 12:30:00 UTC,2444899.020833,28.7317,-95.2428,0109,26.2000
1981-10-21 13:00:00 UTC,2444899.041667,28.7317,-95.2428,0109,26.2000
1981-10-21 13:30:00 UTC,2444899.062500,28.7317,-95.2428,0109,26.2000
1981-10-21 14:00:00 UTC,2444899.083333,28.7317,-95.2428,0109,26.2000
1981-10-21 14:30:00 UTC,2444899.104167,28.7317,-95.2428,0109,26.2000
1981-10-21 15:00:00 UTC,2444899.125000,28.7317,-95.2428,0109,26.2000
1981-10-21 15:30:00 UTC,2444899.145833,28.7317,-95.2428,0109,26.2000
1981-10-21 16:00:00 UTC,2444899.166667,28.7317,-95.2428,0109,26.2000
1981-10-21 16:30:00 UTC,2444899.187500,28.7317,-95.2428,0109,26.2000
1981-10-21 17:00:00 UTC,2444899.208333,28.7317,-95.2428,0109,26.2000
1981-10-21 17:30:00 UTC,2444899.229167,28.7317,-95.2428,0109,26.2000
1981-10-21 18:00:00 UTC,2444899.250000,28.7317,-95.2428,0109,26.2000
1981-10-21 18:30:00 UTC,2444899.270833,28.7317,-95.2428,0109,26.2000
1981-10-21 19:00:00 UTC,2444899.291667,28.7317,-95.2428,0109,26.2000
1981-10-21 19:30:00 UTC,2444899.312500,28.7317,-95.2428,0109,26.1000
1981-10-21 20:00:00 UTC,2444899.333333,28.7317,-95.2428,0109,26.1000
1981-10-21 20:30:00 UTC,2444899.354167,28.7317,-95.2428,0109,26.1000
1981-10-21 21:00:00 UTC,2444899.375000,28.7317,-95.2428,0109,26.1000
1981-10-21 21:30:00 UTC,2444899.395833,28.7317,-95.2428,0109,26.1000
1981-10-21 22:00:00 UTC,2444899.416667,28.7317,-95.2428,0109,26.1000
1981-10-21 22:30:00 UTC,2444899.437500,28.7317,-95.2428,0109,26.1000
1981-10-21 23:00:00 UTC,2444899.458333,28.7317,-95.2428,0109,26.1000
1981-10-21 23:30:00 UTC,2444899.479167,28.7317,-95.2428,0109,26.0000
1981-10-22 00:00:00 UTC,2444899.500000,28.7317,-95.2428,0109,26.0000
1981-10-22 00:30:00 UTC,2444899.520833,28.7317,-95.2428,0109,26.0000
1981-10-22 01:00:00 UTC,2444899.541667,28.7317,-95.2428,0109,26.0000
1981-10-22 01:30:00 UTC,2444899.562500,28.7317,-95.2428,0109,26.0000
1981-10-22 02:00:00 UTC,2444899.583333,28.7317,-95.2428,0109,26.0000
1981-10-22 02:30:00 UTC,2444899.604167,28.7317,-95.2428,0109,26.0000
1981-10-22 03:00:00 UTC,2444899.625000,28.7317,-95.2428,0109,26.0000
1981-10-22 03:30:00 UTC,2444899.645833,28.7317,-95.2428,0109,26.0000
1981-10-22 04:00:00 UTC,2444899.666667,28.7317,-95.2428,0109,26.0000
1981-10-22 04:30:00 UTC,2444899.687500,28.7317,-95.2428,0109,26.0000
1981-10-22 05:00:00 UTC,2444899.708333,28.7317,-95.2428,0109,25.9000
1981-10-22 05:30:00 UTC,2444899.729167,28.7317,-95.2428,0109,25.9000
1981-10-22 06:00:00 UTC,2444899.750000,28.7317,-95.2428,0109,25.9000
1981-10-22 06:30:00 UTC,2444899.770833,28.7317,-95.2428,0109,25.8000
1981-10-22 07:00:00 UTC,2444899.791667,28.7317,-95.2428,0109,25.8000
1981-10-22 07:30:00 UTC,2444899.812500,28.7317,-95.2428,0109,25.8000
1981-10-22 08:00:00 UTC,2444899.833333,28.7317,-95.2428,0109,25.8000
1981-10-22 08:30:00 UTC,2444899.854167,28.7317,-95.2428,0109,25.8000
1981-10-22 09:00:00 UTC,2444899.875000,28.7317,-95.2428,0109,25.8000
1981-10-22 09:30:00 UTC,2444899.895833,28.7317,-95.2428,0109,25.8000
1981-10-22 10:00:00 UTC,2444899.916667,28.7317,-95.2428,0109,25.8000
1981-10-22 10:30:00 UTC,2444899.937500,28.7317,-95.2428,0109,25.8000
1981-10-22 11:00:00 UTC,2444899.958333,28.7317,-95.2428,0109,25.7000
1981-10-22 11:30:00 UTC,2444899.979167,28.7317,-95.2428,0109,25.7000
1981-10-22 12:00:00 UTC,2444900.000000,28.7317,-95.2428,0109,25.7000
1981-10-22 12:30:00 UTC,2444900.020833,28.7317,-95.2428,0109,25.6000
1981-10-22 13:00:00 UTC,2444900.041667,28.7317,-95.2428,0109,25.6000
1981-10-22 13:30:00 UTC,2444900.062500,28.7317,-95.2428,0109,25.6000
1981-10-22 14:00:00 UTC,2444900.083333,28.7317,-95.2428,0109,25.6000
1981-10-22 14:30:00 UTC,2444900.104167,28.7317,-95.2428,0109,25.7000
1981-10-22 15:00:00 UTC,2444900.125000,28.7317,-95.2428,0109,25.8000
1981-10-22 15:30:00 UTC,2444900.145833,28.7317,-95.2428,0109,25.9000
1981-10-22 16:00:00 UTC,2444900.166667,28.7317,-95.2428,0109,25.9000
1981-10-22 16:30:00 UTC,2444900.187500,28.7317,-95.2428,0109,25.9000
1981-10-22 17:00:00 UTC,2444900.208333,28.7317,-95.2428,0109,25.8000
1981-10-22 17:30:00 UTC,2444900.229167,28.7317,-95.2428,0109,25.8000
1981-10-22 18:00:00 UTC,2444900.250000,28.7317,-95.2428,0109,25.8000
1981-10-22 18:30:00 UTC,2444900.270833,28.7317,-95.2428,0109,25.9000
1981-10-22 19:00:00 UTC,2444900.291667,28.7317,-95.2428,0109,25.9000
1981-10-22 19:30:00 UTC,2444900.312500,28.7317,-95.2428,0109,26.1000
1981-10-22 20:00:00 UTC,2444900.333333,28.7317,-95.2428,0109,26.2000
1981-10-22 20:30:00 UTC,2444900.354167,28.7317,-95.2428,0109,26.2000
1981-10-22 21:00:00 UTC,2444900.375000,28.7317,-95.2428,0109,26.1000
1981-10-22 21:30:00 UTC,2444900.395833,28.7317,-95.2428,0109,25.9000
1981-10-22 22:00:00 UTC,2444900.416667,28.7317,-95.2428,0109,25.8000
1981-10-22 22:30:00 UTC,2444900.437500,28.7317,-95.2428,0109,25.8000
1981-10-22 23:00:00 UTC,2444900.458333,28.7317,-95.2428,0109,25.8000
1981-10-22 23:30:00 UTC,2444900.479167,28.7317,-95.2428,0109,25.8000
1981-10-23 00:00:00 UTC,2444900.500000,28.7317,-95.2428,0109,25.9000
1981-10-23 00:30:00 UTC,2444900.520833,28.7317,-95.2428,0109,25.8000
1981-10-23 01:00:00 UTC,2444900.541667,28.7317,-95.2428,0109,25.8000
1981-10-23 01:30:00 UTC,2444900.562500,28.7317,-95.2428,0109,25.8000
1981-10-23 02:00:00 UTC,2444900.583333,28.7317,-95.2428,0109,25.8000
1981-10-23 02:30:00 UTC,2444900.604167,28.7317,-95.2428,0109,25.8000
1981-10-23 03:00:00 UTC,2444900.625000,28.7317,-95.2428,0109,25.8000
1981-10-23 03:30:00 UTC,2444900.645833,28.7317,-95.2428,0109,25.9000
1981-10-23 04:00:00 UTC,2444900.666667,28.7317,-95.2428,0109,26.0000
1981-10-23 04:30:00 UTC,2444900.687500,28.7317,-95.2428,0109,26.1000
1981-10-23 05:00:00 UTC,2444900.708333,28.7317,-95.2428,0109,26.1000
1981-10-23 05:30:00 UTC,2444900.729167,28.7317,-95.2428,0109,26.0000
1981-10-23 06:00:00 UTC,2444900.750000,28.7317,-95.2428,0109,25.9000
1981-10-23 06:30:00 UTC,2444900.770833,28.7317,-95.2428,0109,25.8000
1981-10-23 07:00:00 UTC,2444900.791667,28.7317,-95.2428,0109,25.7000
1981-10-23 07:30:00 UTC,2444900.812500,28.7317,-95.2428,0109,25.6000
1981-10-23 08:00:00 UTC,2444900.833333,28.7317,-95.2428,0109,25.6000
1981-10-23 08:30:00 UTC,2444900.854167,28.7317,-95.2428,0109,25.5000
1981-10-23 09:00:00 UTC,2444900.875000,28.7317,-95.2428,0109,25.5000
1981-10-23 09:30:00 UTC,2444900.895833,28.7317,-95.2428,0109,25.5000
1981-10-23 10:00:00 UTC,2444900.916667,28.7317,-95.2428,0109,25.5000
1981-10-23 10:30:00 UTC,2444900.937500,28.7317,-95.2428,0109,25.5000
1981-10-23 11:00:00 UTC,2444900.958333,28.7317,-95.2428,0109,25.4000
1981-10-23 11:30:00 UTC,2444900.979167,28.7317,-95.2428,0109,25.4000
1981-10-23 12:00:00 UTC,2444901.000000,28.7317,-95.2428,0109,25.4000
1981-10-23 12:30:00 UTC,2444901.020833,28.7317,-95.2428,0109,25.4000
1981-10-23 13:00:00 UTC,2444901.041667,28.7317,-95.2428,0109,25.4000
1981-10-23 13:30:00 UTC,2444901.062500,28.7317,-95.2428,0109,25.4000
1981-10-23 14:00:00 UTC,2444901.083333,28.7317,-95.2428,0109,25.4000
1981-10-23 14:30:00 UTC,2444901.104167,28.7317,-95.2428,0109,25.5000
1981-10-23 15:00:00 UTC,2444901.125000,28.7317,-95.2428,0109,25.5000
1981-10-23 15:30:00 UTC,2444901.145833,28.7317,-95.2428,0109,25.5000
1981-10-23 16:00:00 UTC,2444901.166667,28.7317,-95.2428,0109,25.5000
1981-10-23 16:30:00 UTC,2444901.187500,28.7317,-95.2428,0109,25.5000
1981-10-23 17:00:00 UTC,2444901.208333,28.7317,-95.2428,0109,25.5000
1981-10-23 17:30:00 UTC,2444901.229167,28.7317,-95.2428,0109,25.6000
1981-10-23 18:00:00 UTC,2444901.250000,28.7317,-95.2428,0109,25.6000
1981-10-23 18:30:00 UTC,2444901.270833,28.7317,-95.2428,0109,25.6000
1981-10-23 19:00:00 UTC,2444901.291667,28.7317,-95.2428,0109,25.5000
1981-10-23 19:30:00 UTC,2444901.312500,28.7317,-95.2428,0109,25.5000
1981-10-23 20:00:00 UTC,2444901.333333,28.7317,-95.2428,0109,25.5000
1981-10-23 20:30:00 UTC,2444901.354167,28.7317,-95.2428,0109,25.6000
1981-10-23 21:00:00 UTC,2444901.375000,28.7317,-95.2428,0109,25.6000
1981-10-23 21:30:00 UTC,2444901.395833,28.7317,-95.2428,0109,25.7000
1981-10-23 22:00:00 UTC,2444901.416667,28.7317,-95.2428,0109,25.7000
1981-10-23 22:30:00 UTC,2444901.437500,28.7317,-95.2428,0109,25.7000
1981-10-23 23:00:00 UTC,2444901.458333,28.7317,-95.2428,0109,25.7000
1981-10-23 23:30:00 UTC,2444901.479167,28.7317,-95.2428,0109,25.7000
1981-10-24 00:00:00 UTC,2444901.500000,28.7317,-95.2428,0109,25.7000
1981-10-24 00:30:00 UTC,2444901.520833,28.7317,-95.2428,0109,25.7000
1981-10-24 01:00:00 UTC,2444901.541667,28.7317,-95.2428,0109,25.7000
1981-10-24 01:30:00 UTC,2444901.562500,28.7317,-95.2428,0109,25.7000
1981-10-24 02:00:00 UTC,2444901.583333,28.7317,-95.2428,0109,25.6000
1981-10-24 02:30:00 UTC,2444901.604167,28.7317,-95.2428,0109,25.6000
1981-10-24 03:00:00 UTC,2444901.625000,28.7317,-95.2428,0109,25.6000
1981-10-24 03:30:00 UTC,2444901.645833,28.7317,-95.2428,0109,25.7000
1981-10-24 04:00:00 UTC,2444901.666667,28.7317,-95.2428,0109,25.8000
1981-10-24 04:30:00 UTC,2444901.687500,28.7317,-95.2428,0109,25.7000
1981-10-24 05:00:00 UTC,2444901.708333,28.7317,-95.2428,0109,25.7000
1981-10-24 05:30:00 UTC,2444901.729167,28.7317,-95.2428,0109,25.6000
1981-10-24 06:00:00 UTC,2444901.750000,28.7317,-95.2428,0109,25.6000
1981-10-24 06:30:00 UTC,2444901.770833,28.7317,-95.2428,0109,25.5000
1981-10-24 07:00:00 UTC,2444901.791667,28.7317,-95.2428,0109,25.5000
1981-10-24 07:30:00 UTC,2444901.812500,28.7317,-95.2428,0109,25.4000
1981-10-24 08:00:00 UTC,2444901.833333,28.7317,-95.2428,0109,25.4000
1981-10-24 08:30:00 UTC,2444901.854167,28.7317,-95.2428,0109,25.3000
1981-10-24 09:00:00 UTC,2444901.875000,28.7317,-95.2428,0109,25.3000
1981-10-24 09:30:00 UTC,2444901.895833,28.7317,-95.2428,0109,25.3000
1981-10-24 10:00:00 UTC,2444901.916667,28.7317,-95.2428,0109,25.2000
1981-10-24 10:30:00 UTC,2444901.937500,28.7317,-95.2428,0109,25.2000
1981-10-24 11:00:00 UTC,2444901.958333,28.7317,-95.2428,0109,25.2000
1981-10-24 11:30:00 UTC,2444901.979167,28.7317,-95.2428,0109,25.2000
1981-10-24 12:00:00 UTC,2444902.000000,28.7317,-95.2428,0109,25.1000
1981-10-24 12:30:00 UTC,2444902.020833,28.7317,-95.2428,0109,25.1000
1981-10-24 13:00:00 UTC,2444902.041667,28.7317,-95.2428,0109,25.1000
1981-10-24 13:30:00 UTC,2444902.062500,28.7317,-95.2428,0109,25.0000
1981-10-24 14:00:00 UTC,2444902.083333,28.7317,-95.2428,0109,25.0000
1981-10-24 14:30:00 UTC,2444902.104167,28.7317,-95.2428,0109,24.9000
1981-10-24 15:00:00 UTC,2444902.125000,28.7317,-95.2428,0109,24.9000
1981-10-24 15:30:00 UTC,2444902.145833,28.7317,-95.2428,0109,24.9000
1981-10-24 16:00:00 UTC,2444902.166667,28.7317,-95.2428,0109,24.9000
1981-10-24 16:30:00 UTC,2444902.187500,28.7317,-95.2428,0109,24.9000
1981-10-24 17:00:00 UTC,2444902.208333,28.7317,-95.2428,0109,24.9000
1981-10-24 17:30:00 UTC,2444902.229167,28.7317,-95.2428,0109,24.9000
1981-10-24 18:00:00 UTC,2444902.250000,28.7317,-95.2428,0109,24.9000
1981-10-24 18:30:00 UTC,2444902.270833,28.7317,-95.2428,0109,24.9000
1981-10-24 19:00:00 UTC,2444902.291667,28.7317,-95.2428,0109,24.8000
1981-10-24 19:30:00 UTC,2444902.312500,28.7317,-95.2428,0109,24.8000
1981-10-24 20:00:00 UTC,2444902.333333,28.7317,-95.2428,0109,24.9000
1981-10-24 20:30:00 UTC,2444902.354167,28.7317,-95.2428,0109,24.9000
1981-10-24 21:00:00 UTC,2444902.375000,28.7317,-95.2428,0109,24.9000
1981-10-24 21:30:00 UTC,2444902.395833,28.7317,-95.2428,0109,24.9000
1981-10-24 22:00:00 UTC,2444902.416667,28.7317,-95.2428,0109,24.9000
1981-10-24 22:30:00 UTC,2444902.437500,28.7317,-95.2428,0109,24.9000
1981-10-24 23:00:00 UTC,2444902.458333,28.7317,-95.2428,0109,24.9000
1981-10-24 23:30:00 UTC,2444902.479167,28.7317,-95.2428,0109,24.9000
1981-10-25 00:00:00 UTC,2444902.500000,28.7317,-95.2428,0109,24.9000
1981-10-25 00:30:00 UTC,2444902.520833,28.7317,-95.2428,0109,24.9000
1981-10-25 01:00:00 UTC,2444902.541667,28.7317,-95.2428,0109,24.9000
1981-10-25 01:30:00 UTC,2444902.562500,28.7317,-95.2428,0109,24.9000
1981-10-25 02:00:00 UTC,2444902.583333,28.7317,-95.2428,0109,24.9000
1981-10-25 02:30:00 UTC,2444902.604167,28.7317,-95.2428,0109,24.9000
1981-10-25 03:00:00 UTC,2444902.625000,28.7317,-95.2428,0109,24.9000
1981-10-25 03:30:00 UTC,2444902.645833,28.7317,-95.2428,0109,24.9000
1981-10-25 04:00:00 UTC,2444902.666667,28.7317,-95.2428,0109,24.9000
1981-10-25 04:30:00 UTC,2444902.687500,28.7317,-95.2428,0109,24.9000
1981-10-25 05:00:00 UTC,2444902.708333,28.7317,-95.2428,0109,24.8000
1981-10-25 05:30:00 UTC,2444902.729167,28.7317,-95.2428,0109,24.8000
1981-10-25 06:00:00 UTC,2444902.750000,28.7317,-95.2428,0109,24.8000
1981-10-25 06:30:00 UTC,2444902.770833,28.7317,-95.2428,0109,24.8000
1981-10-25 07:00:00 UTC,2444902.791667,28.7317,-95.2428,0109,24.8000
1981-10-25 07:30:00 UTC,2444902.812500,28.7317,-95.2428,0109,24.8000
1981-10-25 08:00:00 UTC,2444902.833333,28.7317,-95.2428,0109,24.8000
1981-10-25 08:30:00 UTC,2444902.854167,28.7317,-95.2428,0109,24.7000
1981-10-25 09:00:00 UTC,2444902.875000,28.7317,-95.2428,0109,24.6000
1981-10-25 09:30:00 UTC,2444902.895833,28.7317,-95.2428,0109,24.4000
1981-10-25 10:00:00 UTC,2444902.916667,28.7317,-95.2428,0109,24.4000
1981-10-25 10:30:00 UTC,2444902.937500,28.7317,-95.2428,0109,24.4000
1981-10-25 11:00:00 UTC,2444902.958333,28.7317,-95.2428,0109,24.5000
1981-10-25 11:30:00 UTC,2444902.979167,28.7317,-95.2428,0109,24.5000
1981-10-25 12:00:00 UTC,2444903.000000,28.7317,-95.2428,0109,24.6000
1981-10-25 12:30:00 UTC,2444903.020833,28.7317,-95.2428,0109,24.6000
1981-10-25 13:00:00 UTC,2444903.041667,28.7317,-95.2428,0109,24.6000
1981-10-25 13:30:00 UTC,2444903.062500,28.7317,-95.2428,0109,24.5000
1981-10-25 14:00:00 UTC,2444903.083333,28.7317,-95.2428,0109,24.5000
1981-10-25 14:30:00 UTC,2444903.104167,28.7317,-95.2428,0109,24.5000
1981-10-25 15:00:00 UTC,2444903.125000,28.7317,-95.2428,0109,24.5000
1981-10-25 15:30:00 UTC,2444903.145833,28.7317,-95.2428,0109,24.5000
1981-10-25 16:00:00 UTC,2444903.166667,28.7317,-95.2428,0109,24.5000
1981-10-25 16:30:00 UTC,2444903.187500,28.7317,-95.2428,0109,24.5000
1981-10-25 17:00:00 UTC,2444903.208333,28.7317,-95.2428,0109,24.5000
1981-10-25 17:30:00 UTC,2444903.229167,28.7317,-95.2428,0109,24.5000
1981-10-25 18:00:00 UTC,2444903.250000,28.7317,-95.2428,0109,24.6000
1981-10-25 18:30:00 UTC,2444903.270833,28.7317,-95.2428,0109,24.6000
1981-10-25 19:00:00 UTC,2444903.291667,28.7317,-95.2428,0109,24.6000
1981-10-25 19:30:00 UTC,2444903.312500,28.7317,-95.2428,0109,24.6000
1981-10-25 20:00:00 UTC,2444903.333333,28.7317,-95.2428,0109,24.6000
1981-10-25 20:30:00 UTC,2444903.354167,28.7317,-95.2428,0109,24.6000
1981-10-25 21:00:00 UTC,2444903.375000,28.7317,-95.2428,0109,24.6000
1981-10-25 21:30:00 UTC,2444903.395833,28.7317,-95.2428,0109,24.6000
1981-10-25 22:00:00 UTC,2444903.416667,28.7317,-95.2428,0109,24.6000
1981-10-25 22:30:00 UTC,2444903.437500,28.7317,-95.2428,0109,24.6000
1981-10-25 23:00:00 UTC,2444903.458333,28.7317,-95.2428,0109,24.6000
1981-10-25 23:30:00 UTC,2444903.479167,28.7317,-95.2428,0109,24.6000
1981-10-26 00:00:00 UTC,2444903.500000,28.7317,-95.2428,0109,24.6000
1981-10-26 00:30:00 UTC,2444903.520833,28.7317,-95.2428,0109,24.6000
1981-10-26 01:00:00 UTC,2444903.541667,28.7317,-95.2428,0109,24.6000
1981-10-26 01:30:00 UTC,2444903.562500,28.7317,-95.2428,0109,24.6000
1981-10-26 02:00:00 UTC,2444903.583333,28.7317,-95.2428,0109,24.6000
1981-10-26 02:30:00 UTC,2444903.604167,28.7317,-95.2428,0109,24.6000
1981-10-26 03:00:00 UTC,2444903.625000,28.7317,-95.2428,0109,24.6000
1981-10-26 03:30:00 UTC,2444903.645833,28.7317,-95.2428,0109,24.6000
1981-10-26 04:00:00 UTC,2444903.666667,28.7317,-95.2428,0109,24.6000
1981-10-26 04:30:00 UTC,2444903.687500,28.7317,-95.2428,0109,24.6000
1981-10-26 05:00:00 UTC,2444903.708333,28.7317,-95.2428,0109,24.6000
1981-10-26 05:30:00 UTC,2444903.729167,28.7317,-95.2428,0109,24.6000
1981-10-26 06:00:00 UTC,2444903.750000,28.7317,-95.2428,0109,24.5000
1981-10-26 06:30:00 UTC,2444903.770833,28.7317,-95.2428,0109,24.4000
1981-10-26 07:00:00 UTC,2444903.791667,28.7317,-95.2428,0109,24.4000
1981-10-26 07:30:00 UTC,2444903.812500,28.7317,-95.2428,0109,24.4000
1981-10-26 08:00:00 UTC,2444903.833333,28.7317,-95.2428,0109,24.4000
1981-10-26 08:30:00 UTC,2444903.854167,28.7317,-95.2428,0109,24.4000
1981-10-26 09:00:00 UTC,2444903.875000,28.7317,-95.2428,0109,24.4000
1981-10-26 09:30:00 UTC,2444903.895833,28.7317,-95.2428,0109,24.4000
1981-10-26 10:00:00 UTC,2444903.916667,28.7317,-95.2428,0109,24.3000
1981-10-26 10:30:00 UTC,2444903.937500,28.7317,-95.2428,0109,24.3000
1981-10-26 11:00:00 UTC,2444903.958333,28.7317,-95.2428,0109,24.2000
1981-10-26 11:30:00 UTC,2444903.979167,28.7317,-95.2428,0109,24.2000
1981-10-26 12:00:00 UTC,2444904.000000,28.7317,-95.2428,0109,24.1000
1981-10-26 12:30:00 UTC,2444904.020833,28.7317,-95.2428,0109,24.0000
1981-10-26 13:00:00 UTC,2444904.041667,28.7317,-95.2428,0109,24.0000
1981-10-26 13:30:00 UTC,2444904.062500,28.7317,-95.2428,0109,24.0000
1981-10-26 14:00:00 UTC,2444904.083333,28.7317,-95.2428,0109,24.0000
1981-10-26 14:30:00 UTC,2444904.104167,28.7317,-95.2428,0109,24.0000
1981-10-26 15:00:00 UTC,2444904.125000,28.7317,-95.2428,0109,24.0000
1981-10-26 15:30:00 UTC,2444904.145833,28.7317,-95.2428,0109,24.0000
1981-10-26 16:00:00 UTC,2444904.166667,28.7317,-95.2428,0109,23.9000
1981-10-26 16:30:00 UTC,2444904.187500,28.7317,-95.2428,0109,23.9000
1981-10-26 17:00:00 UTC,2444904.208333,28.7317,-95.2428,0109,23.9000
1981-10-26 17:30:00 UTC,2444904.229167,28.7317,-95.2428,0109,24.0000
1981-10-26 18:00:00 UTC,2444904.250000,28.7317,-95.2428,0109,24.0000
1981-10-26 18:30:00 UTC,2444904.270833,28.7317,-95.2428,0109,24.0000
1981-10-26 19:00:00 UTC,2444904.291667,28.7317,-95.2428,0109,24.1000
1981-10-26 19:30:00 UTC,2444904.312500,28.7317,-95.2428,0109,24.1000
1981-10-26 20:00:00 UTC,2444904.333333,28.7317,-95.2428,0109,24.1000
1981-10-26 20:30:00 UTC,2444904.354167,28.7317,-95.2428,0109,24.1000
1981-10-26 21:00:00 UTC,2444904.375000,28.7317,-95.2428,0109,24.2000
1981-10-26 21:30:00 UTC,2444904.395833,28.7317,-95.2428,0109,24.3000
1981-10-26 22:00:00 UTC,2444904.416667,28.7317,-95.2428,0109,24.3000
1981-10-26 22:30:00 UTC,2444904.437500,28.7317,-95.2428,0109,24.3000
1981-10-26 23:00:00 UTC,2444904.458333,28.7317,-95.2428,0109,24.3000
1981-10-26 23:30:00 UTC,2444904.479167,28.7317,-95.2428,0109,24.3000
1981-10-27 00:00:00 UTC,2444904.500000,28.7317,-95.2428,0109,24.2000
1981-10-27 00:30:00 UTC,2444904.520833,28.7317,-95.2428,0109,24.2000
1981-10-27 01:00:00 UTC,2444904.541667,28.7317,-95.2428,0109,24.1000
1981-10-27 01:30:00 UTC,2444904.562500,28.7317,-95.2428,0109,24.0000
1981-10-27 02:00:00 UTC,2444904.583333,28.7317,-95.2428,0109,24.0000
1981-10-27 02:30:00 UTC,2444904.604167,28.7317,-95.2428,0109,24.0000
1981-10-27 03:00:00 UTC,2444904.625000,28.7317,-95.2428,0109,24.0000
1981-10-27 03:30:00 UTC,2444904.645833,28.7317,-95.2428,0109,24.0000
1981-10-27 04:00:00 UTC,2444904.666667,28.7317,-95.2428,0109,23.9000
1981-10-27 04:30:00 UTC,2444904.687500,28.7317,-95.2428,0109,23.9000
1981-10-27 05:00:00 UTC,2444904.708333,28.7317,-95.2428,0109,24.0000
1981-10-27 05:30:00 UTC,2444904.729167,28.7317,-95.2428,0109,24.0000
1981-10-27 06:00:00 UTC,2444904.750000,28.7317,-95.2428,0109,24.0000
1981-10-27 06:30:00 UTC,2444904.770833,28.7317,-95.2428,0109,23.9000
1981-10-27 07:00:00 UTC,2444904.791667,28.7317,-95.2428,0109,23.9000
1981-10-27 07:30:00 UTC,2444904.812500,28.7317,-95.2428,0109,23.9000
1981-10-27 08:00:00 UTC,2444904.833333,28.7317,-95.2428,0109,23.9000
1981-10-27 08:30:00 UTC,2444904.854167,28.7317,-95.2428,0109,23.8000
1981-10-27 09:00:00 UTC,2444904.875000,28.7317,-95.2428,0109,23.8000
1981-10-27 09:30:00 UTC,2444904.895833,28.7317,-95.2428,0109,23.7000
1981-10-27 10:00:00 UTC,2444904.916667,28.7317,-95.2428,0109,23.7000
1981-10-27 10:30:00 UTC,2444904.937500,28.7317,-95.2428,0109,23.6000
1981-10-27 11:00:00 UTC,2444904.958333,28.7317,-95.2428,0109,23.6000
1981-10-27 11:30:00 UTC,2444904.979167,28.7317,-95.2428,0109,23.5000
1981-10-27 12:00:00 UTC,2444905.000000,28.7317,-95.2428,0109,23.5000
1981-10-27 12:30:00 UTC,2444905.020833,28.7317,-95.2428,0109,23.4000
1981-10-27 13:00:00 UTC,2444905.041667,28.7317,-95.2428,0109,23.4000
1981-10-27 13:30:00 UTC,2444905.062500,28.7317,-95.2428,0109,23.4000
1981-10-27 14:00:00 UTC,2444905.083333,28.7317,-95.2428,0109,23.5000
1981-10-27 14:30:00 UTC,2444905.104167,28.7317,-95.2428,0109,23.5000
1981-10-27 15:00:00 UTC,2444905.125000,28.7317,-95.2428,0109,23.5000
1981-10-27 15:30:00 UTC,2444905.145833,28.7317,-95.2428,0109,23.5000
1981-10-27 16:00:00 UTC,2444905.166667,28.7317,-95.2428,0109,23.4000
1981-10-27 16:30:00 UTC,2444905.187500,28.7317,-95.2428,0109,23.4000
1981-10-27 17:00:00 UTC,2444905.208333,28.7317,-95.2428,0109,23.4000
1981-10-27 17:30:00 UTC,2444905.229167,28.7317,-95.2428,0109,23.4000
1981-10-27 18:00:00 UTC,2444905.250000,28.7317,-95.2428,0109,23.5000
1981-10-27 18:30:00 UTC,2444905.270833,28.7317,-95.2428,0109,23.5000
1981-10-27 19:00:00 UTC,2444905.291667,28.7317,-95.2428,0109,23.5000
1981-10-27 19:30:00 UTC,2444905.312500,28.7317,-95.2428,0109,23.5000
1981-10-27 20:00:00 UTC,2444905.333333,28.7317,-95.2428,0109,23.6000
1981-10-27 20:30:00 UTC,2444905.354167,28.7317,-95.2428,0109,23.6000
1981-10-27 21:00:00 UTC,2444905.375000,28.7317,-95.2428,0109,23.7000
1981-10-27 21:30:00 UTC,2444905.395833,28.7317,-95.2428,0109,23.7000
1981-10-27 22:00:00 UTC,2444905.416667,28.7317,-95.2428,0109,23.7000
1981-10-27 22:30:00 UTC,2444905.437500,28.7317,-95.2428,0109,23.6000
1981-10-27 23:00:00 UTC,2444905.458333,28.7317,-95.2428,0109,23.6000
1981-10-27 23:30:00 UTC,2444905.479167,28.7317,-95.2428,0109,23.6000
1981-10-28 00:00:00 UTC,2444905.500000,28.7317,-95.2428,0109,23.6000
1981-10-28 00:30:00 UTC,2444905.520833,28.7317,-95.2428,0109,23.6000
1981-10-28 01:00:00 UTC,2444905.541667,28.7317,-95.2428,0109,23.6000
1981-10-28 01:30:00 UTC,2444905.562500,28.7317,-95.2428,0109,23.5000
1981-10-28 02:00:00 UTC,2444905.583333,28.7317,-95.2428,0109,23.4000